METAR UND TAF INFORMATION
PAUN 161056Z AUTO 08006KT 10SM SCT013 BKN026 OVC033 07/06 A2956 RMK AO2 SLP014 T00720056 PNO $

 FLUGHAFENKARTE

 RUNWAY INFORMATION
Runway 08 Runway length 2000 ft Runway width 80 ft
Runway elevation 16 ft Runway displaced threshold 0 ft Runway heading 98
Runway 26 Runway length 2000 ft Runway width 80 ft
Runway elevation 9 ft Runway displaced threshold 0 ft Runway heading 278
Runway 15 Runway length 6004 ft Runway width 150 ft
Runway elevation 21 ft Runway displaced threshold 0 ft Runway heading 164
Runway 33 Runway length 6004 ft Runway width 150 ft
Runway elevation 16 ft Runway displaced threshold 0 ft Runway heading 344

 AIRPORT FREQUENCIES
Type AWOS Name AWOS 3 Frequency 132.25 MHZ
Type CNTR Name ANCHORAGE Frequency 135.7 MHZ
Type CTAF Name CTAF Frequency 123 MHZ
Type FSS Name NOME RDO Frequency 122.3 MHZ

 AIRPORT NEAR NAVIGATION AIDS
Type NDB Name North River Frequency 382 KHZ
Type VOR-DME Name Unalakleet Frequency 116900 KHZ